Temp_Advection
nan nan nan nan nan nan nan nan nan nan nan nan nan nan nan nan nan nan nan nan nan nan nan nan nan nan nan nan nan nan nan nan nan nan nan nan nan nan nan nan nan nan nan nan nan nan nan nan nan
nan -0 -0 0 0 0 0 0 -1 -0 -0 -0 -0 -1 -1 -1 -1 -1 -0 -0 0 -0 -0 0 0 0 0 0 0 0 -0 -0 -0 0 0 0 0 0 0 0 0 -0 0 -0 -0 0 0 0 nan
nan -1 -1 0 0 0 1 0 -0 -0 -0 -0 -0 -0 -1 -0 -1 -0 -0 -0 -0 0 0 -0 0 0 0 0 0 0 -0 -0 -0 -0 -0 0 0 0 0 0 -0 -0 0 0 -0 0 0 0 nan
nan -0 1 -0 -2 2 -0 -0 -0 -0 -0 -0 -0 -1 -1 -0 -0 -1 -0 -0 -0 -0 0 0 0 0 0 0 0 0 0 -0 -0 -0 0 0 0 0 0 0 -0 -0 0 0 0 0 0 -0 nan
nan 0 -0 -0 0 1 -0 -0 -0 -0 -0 0 -0 -1 -1 -0 -0 -0 -0 -0 -0 -0 -0 0 0 0 0 0 0 0 0 0 -0 -0 0 0 0 0 0 0 0 0 -0 0 0 0 -0 -0 nan
nan 0 0 -0 -1 1 -0 -0 -0 -0 -0 -0 -1 -1 -1 -0 -0 -0 -0 -0 -1 -0 -0 0 0 0 0 0 0 0 0 0 0 -0 0 0 0 0 0 -0 -0 0 -0 0 0 -0 -0 0 nan
nan 1 0 0 0 0 0 0 -0 -0 -0 -0 -0 -1 -1 -0 -1 -0 -0 -0 -0 -0 -1 -0 -0 -0 0 0 0 0 0 0 0 -0 0 -0 0 0 -0 0 -0 0 0 0 0 -0 -0 0 nan
nan 0 0 -0 -0 -0 -0 0 0 -0 -1 -0 -0 -0 -1 -0 -0 -1 -0 -0 -0 -0 -0 -0 -0 -0 -0 0 0 0 0 0 -0 0 0 0 0 -0 -0 0 0 -0 -0 -0 -0 -0 -0 0 nan
nan 0 -0 -1 -1 -1 0 -0 -0 -0 -0 -0 -0 -0 -1 -1 -0 -1 -1 -0 -0 -0 -0 -0 -0 -0 -0 -0 0 0 0 0 0 0 0 0 -0 -0 -0 -0 0 -0 -0 0 -0 0 0 0 nan
nan 0 -0 0 -0 -0 0 0 -0 -0 -0 -0 -0 -1 -1 -0 -0 -1 -1 -1 -1 -1 -1 0 -0 -0 -0 -0 -0 0 -0 0 0 0 0 0 0 -0 -0 -0 -0 -0 -0 0 0 0 0 -0 nan
nan -0 0 0 -0 -0 0 0 -0 0 0 -0 -1 -1 -0 -0 -0 -0 -1 -1 -2 -1 -0 -1 -0 -0 -0 -0 -0 -0 0 -0 0 0 0 0 -0 -0 0 0 0 -0 0 0 0 0 0 0 nan
nan 0 -0 -0 -0 0 0 -0 0 -0 -0 -0 -0 -1 -1 -0 -0 -0 -0 -0 -1 -1 -1 -0 -0 -0 -0 -0 -0 -0 -0 -0 0 -0 0 0 -0 -0 -0 -0 -0 -0 -0 -0 -0 -0 -0 0 nan
nan -0 -0 -0 -0 -0 -0 0 -0 0 0 0 -0 -0 -0 -0 -0 0 0 -0 -0 -1 -1 -1 -0 0 0 0 -0 -0 -0 -0 -0 0 -0 -0 0 0 0 0 -0 0 -0 -0 -0 -0 -0 0 nan
nan -0 -0 -0 -0 -0 -0 0 -0 -0 -0 0 -0 -1 -1 -0 -0 -0 0 0 -0 -0 -0 -1 -1 -0 0 0 0 0 -0 -0 -0 -0 0 0 0 0 0 -0 0 -0 0 0 -0 0 0 -0 nan
nan 0 1 -0 -0 -0 0 1 -0 0 0 -0 -0 -0 -0 -0 -0 -0 -0 0 0 -0 -0 -0 -1 -1 -0 -0 -0 0 0 -0 -0 -0 0 0 0 0 0 0 0 0 0 0 -0 -0 -0 -0 nan
nan 0 -1 1 -0 -0 1 0 1 0 0 -0 -0 -0 -0 -0 -0 -0 -0 -0 0 0 0 -0 -0 -0 -0 -0 -0 -0 -0 0 0 -0 -0 -0 0 0 0 -0 0 0 -0 -0 0 0 0 -0 nan
nan 0 -0 1 0 -0 0 -1 -0 -1 -0 0 -0 -0 -0 -0 -0 -0 -0 -0 -0 0 0 0 0 -0 -0 0 -0 -0 -0 -0 0 -0 -0 -0 -0 -0 0 -0 0 0 -0 0 0 0 -0 0 nan
nan -1 0 0 -1 -0 -0 -0 -1 -0 -0 -0 -0 -0 -0 -0 -0 -0 -0 -0 -0 0 0 0 0 0 0 -0 -0 -0 -0 -0 -0 -0 0 0 -0 -0 0 0 -0 -0 0 0 0 0 0 0 nan
nan -0 -0 1 0 -0 -0 -0 -0 -1 -1 -1 -0 -0 -0 -0 -0 -0 -0 -0 -0 -0 -0 0 0 0 0 -0 -0 -0 -0 -0 -0 -0 0 -0 -0 -0 0 0 -0 -0 0 0 0 -0 -0 -0 nan
nan 0 -1 -1 0 -0 -0 -0 0 -1 -1 -1 -0 -0 -0 -0 -0 -0 -0 -0 -0 -0 -0 0 0 0 0 -0 0 0 0 0 0 0 0 -0 0 0 0 0 -0 0 0 0 -0 -0 -0 -0 nan
nan -0 -0 -0 0 -0 0 1 -0 -0 -0 -0 -0 -0 -0 -0 -0 -0 -0 -0 -0 -0 0 -0 0 0 -0 0 0 0 0 0 0 0 -0 -0 0 0 -0 -0 0 0 -0 -0 0 -0 -0 -0 nan
nan -0 0 0 -0 -0 -0 1 -0 -1 -0 -0 -0 -0 -0 -0 -1 -0 -0 -0 -0 -0 -0 -0 0 -0 -0 0 -0 -0 0 -0 -0 -0 -0 0 0 -0 -0 0 0 -0 -0 0 0 -0 0 -0 nan
nan -0 0 -0 0 -0 -0 0 -1 0 -0 -0 -1 -0 -0 0 -0 -0 -0 -0 0 0 -0 -0 0 -1 -0 -0 -0 0 -0 -0 -0 0 0 0 0 -0 -0 -0 0 0 -0 -0 0 0 -0 -0 nan
nan 0 0 0 0 -0 -0 0 -0 -0 -0 -0 -1 -0 -0 -0 -0 0 0 0 0 0 0 -0 -0 -0 -0 -0 0 0 -0 0 0 0 0 0 -0 -0 -0 -0 0 -0 -0 0 0 -0 -0 0 nan
nan 1 0 0 -0 -0 -0 0 -0 -0 -0 -0 0 -0 -0 -0 -0 -0 -0 0 0 0 0 -0 -0 0 0 1 0 -0 0 0 0 0 -0 -0 -0 -0 0 0 0 0 0 0 0 -0 0 0 nan
nan 0 0 -1 -0 -0 1 -0 -0 -0 -0 -0 0 0 0 -0 -0 -0 0 1 1 1 0 0 -0 0 1 -0 -0 0 -0 -0 -0 -0 -0 -0 0 0 0 0 -0 0 -0 0 -0 -0 -0 -0 nan
nan -1 -1 1 0 1 0 -1 0 0 0 -0 -0 0 0 0 0 0 0 0 1 1 0 0 -0 -0 -0 -0 0 -0 -0 -0 -0 0 0 0 -0 -0 0 0 -0 0 0 -0 -0 -0 -0 -0 nan
nan 0 1 0 2 0 -1 -1 0 0 -0 0 -0 -0 -0 0 0 0 0 -0 -0 0 -0 0 0 0 -0 -0 -0 -0 -0 -0 0 0 -0 -0 0 0 0 0 0 0 0 0 -0 -0 -0 0 nan
nan -0 -1 -0 0 0 -0 -1 -1 -1 -0 0 0 -0 -0 -0 0 0 0 0 -0 -0 0 0 0 -0 -0 -0 -0 -0 -0 0 0 -0 -0 0 0 0 0 0 0 0 0 0 0 -0 0 0 nan
nan nan nan nan nan nan nan nan nan nan nan nan nan nan nan nan nan nan nan nan nan nan nan nan nan nan nan nan nan nan nan nan nan nan nan nan nan nan nan nan nan nan nan nan nan nan nan nan nan
Wind_Speed
3 1 3 5 4 5 10 7 12 13 10 8 8 13 13 15 12 4 11 9 15 17 17 17 15 13 10 11 11 12 12 10 9 9 9 7 6 8 9 10 10 11 11 12 12 12 14 14 15
1 5 7 10 3 2 6 12 14 11 10 6 7 10 15 14 16 14 11 13 16 14 18 17 16 13 12 12 12 13 13 12 10 9 7 8 8 9 11 12 12 12 12 13 13 15 15 15 15
4 7 12 4 4 4 10 13 10 8 5 5 6 8 10 6 9 8 14 16 12 13 18 18 18 13 12 13 13 13 13 12 11 13 8 8 10 10 12 12 13 14 13 15 16 16 17 16 15
3 7 9 1 13 14 14 13 8 5 11 7 8 12 10 7 8 11 14 15 12 11 15 19 18 17 13 12 11 11 10 11 8 9 8 9 11 12 12 13 14 14 15 15 15 14 15 14 13
5 12 3 4 3 12 14 13 9 9 6 8 7 16 17 14 14 13 13 14 14 13 12 16 19 19 13 13 12 12 9 11 10 10 9 11 12 13 13 14 14 14 14 13 14 15 14 14 14
14 9 4 2 7 11 11 10 9 12 12 13 18 16 16 14 13 14 15 15 16 15 14 15 15 17 18 13 13 11 9 10 11 10 10 12 13 14 14 15 13 13 14 14 15 13 14 14 13
14 7 3 2 2 4 9 3 15 11 12 14 14 15 14 14 13 14 16 17 18 17 17 18 18 14 14 16 15 12 11 12 13 12 11 11 13 13 13 13 13 14 13 13 12 13 13 12 11
10 3 2 8 9 2 3 5 7 12 13 11 5 11 15 16 15 15 15 17 16 15 20 15 15 13 11 15 17 16 14 15 16 15 9 8 10 10 9 10 13 13 12 12 12 11 11 10 10
7 3 3 11 8 8 8 9 9 7 12 7 2 16 20 19 16 18 18 17 15 14 14 19 15 10 19 18 16 14 14 16 16 19 14 18 9 10 11 10 12 12 11 11 11 9 10 11 11
8 6 6 5 4 8 7 4 9 9 10 12 8 19 21 19 16 16 19 19 16 18 17 12 12 15 19 17 16 17 16 16 16 16 13 10 8 10 8 11 11 11 11 9 8 8 10 10 3
3 5 1 2 7 8 10 5 6 6 10 9 17 21 20 19 15 15 15 15 18 17 17 15 11 15 17 14 17 17 16 16 14 13 13 8 9 10 9 9 10 10 8 7 5 5 6 2 2
5 3 1 7 6 2 8 4 7 5 8 4 14 21 20 18 16 15 16 16 17 15 13 13 12 14 14 12 17 16 15 13 8 9 9 11 9 9 7 8 7 7 5 5 3 2 2 1 1
6 6 2 6 6 6 3 8 2 8 0 6 14 20 18 17 16 12 12 14 15 15 13 19 14 11 13 16 11 9 9 8 10 7 10 7 10 9 7 7 4 3 4 4 2 2 2 0 3
2 5 4 4 7 5 8 8 10 14 10 11 16 19 17 17 16 15 13 15 14 14 15 16 15 15 11 11 15 11 11 9 8 12 11 9 10 10 7 5 5 5 3 4 3 3 1 1 1
7 9 9 6 5 4 11 11 10 9 10 13 16 17 16 15 15 14 14 15 15 15 15 15 16 14 15 13 11 18 11 11 11 12 9 10 7 10 10 5 3 4 0 6 5 2 1 2 1
11 10 7 14 8 5 12 5 13 11 13 15 16 16 16 17 15 15 14 15 16 16 16 14 14 14 14 13 15 12 12 11 10 9 10 13 7 10 6 5 4 5 4 2 1 2 1 1 2
12 3 7 8 9 4 7 9 13 14 15 15 17 18 17 17 17 15 15 15 16 16 17 16 14 15 15 15 15 13 12 10 9 10 11 13 11 9 8 4 3 5 4 1 6 3 2 2 2
5 11 9 12 8 5 6 4 14 13 14 12 17 19 19 20 17 17 16 15 15 17 17 17 16 15 16 15 15 13 11 11 12 12 11 13 11 9 11 6 1 5 5 4 3 1 1 2 3
6 8 5 12 7 3 7 7 11 17 17 16 21 20 20 19 19 19 17 16 15 16 17 18 17 16 16 14 15 14 13 13 13 12 12 10 10 11 13 6 5 4 2 6 1 3 4 2 2
7 11 14 13 3 6 8 9 10 15 18 23 20 19 20 21 21 21 19 18 17 17 17 18 18 18 18 14 14 13 13 12 13 11 9 10 10 10 9 11 7 8 5 5 4 5 3 5 5
15 15 7 3 6 11 12 14 6 16 16 16 22 23 25 24 25 23 21 20 19 19 19 19 20 19 18 15 14 13 13 10 13 12 9 11 11 10 11 9 12 7 10 7 6 5 6 7 2
16 14 9 7 7 8 4 10 12 16 16 16 19 21 25 25 28 23 23 22 22 21 20 20 20 21 19 20 14 15 13 13 12 12 12 13 10 11 11 12 11 11 8 11 8 8 8 7 7
17 12 12 10 12 12 15 9 13 14 15 18 20 24 24 25 28 27 25 23 21 21 21 21 21 22 20 20 19 15 16 13 11 12 13 14 9 11 10 10 11 12 10 10 12 7 10 7 7
17 16 10 12 13 14 13 12 9 8 11 13 20 22 24 28 27 25 23 23 21 21 22 22 23 22 22 20 22 20 16 17 14 13 13 11 13 11 12 11 11 12 11 9 7 8 10 10 9
16 17 12 13 12 13 7 2 6 10 6 3 8 14 19 23 26 30 28 25 24 23 23 23 25 24 24 22 20 22 20 19 17 12 12 13 14 14 15 13 13 11 13 10 9 9 9 9 8
15 21 14 18 10 9 13 8 6 13 7 6 4 6 13 21 24 26 27 27 24 24 25 24 25 23 23 23 22 20 21 18 17 16 15 13 12 15 11 14 12 11 12 13 13 12 8 10 9
15 18 23 23 7 9 11 10 11 8 9 9 9 3 11 17 23 24 25 25 26 24 24 25 25 24 24 24 22 22 21 20 18 17 17 18 13 13 17 17 13 13 14 15 15 9 12 10 10
21 13 18 16 20 12 13 23 2 11 12 10 5 8 9 12 19 22 23 24 22 23 25 23 24 23 23 23 23 21 21 21 21 19 20 17 17 19 16 11 14 13 16 16 16 14 14 15 14
12 14 14 20 12 11 11 9 14 16 12 9 10 10 13 13 16 19 19 20 21 20 22 22 23 25 21 22 23 22 21 21 20 19 21 21 21 20 16 17 16 15 16 17 19 19 17 13 16
19 18 15 10 13 10 10 6 9 16 14 12 18 11 8 12 13 15 17 18 19 18 18 19 20 20 21 21 23 23 22 22 21 21 21 22 22 20 20 21 19 19 19 19 19 16 15 15 16
Wind_Direction
253 347 285 249 293 269 104 85 75 32 39 41 53 55 80 40 21 69 143 143 142 146 162 155 143 138 136 115 119 118 121 122 132 132 135 134 137 127 121 116 112 111 108 110 109 109 103 104 102
174 231 254 266 206 146 57 72 55 48 59 86 92 39 65 67 72 105 122 137 156 151 155 164 153 136 131 120 119 114 111 115 118 122 126 139 145 137 122 116 113 112 113 111 111 105 104 101 99
183 240 271 240 21 128 84 80 80 60 54 30 88 70 54 88 70 114 133 134 136 146 155 174 171 144 135 125 122 111 108 106 108 124 143 144 142 139 126 119 115 115 108 109 108 104 101 98 98
240 242 262 62 200 78 85 78 93 124 94 67 102 94 77 73 96 123 133 130 132 138 147 171 170 165 140 126 129 121 115 111 127 139 140 145 144 136 127 121 122 121 123 116 109 109 103 98 96
265 266 140 258 12 89 89 78 37 67 75 90 100 79 89 88 105 119 135 129 130 126 135 160 175 177 170 134 118 123 137 145 147 133 135 141 142 138 131 127 129 127 122 117 115 110 102 93 91
251 293 348 70 308 113 100 100 100 81 89 103 102 94 100 107 109 114 121 128 123 129 124 125 147 180 176 170 138 135 142 146 132 123 121 124 130 127 130 132 134 128 120 115 118 109 99 93 90
257 277 236 254 153 68 103 50 75 81 110 108 127 114 126 117 114 120 121 127 126 122 120 113 111 114 130 144 162 159 150 138 127 119 115 115 115 120 127 128 131 129 121 122 117 110 100 91 86
295 251 319 138 190 232 246 94 103 81 94 129 79 137 144 135 123 126 123 125 129 124 128 123 113 114 131 154 158 154 148 136 126 113 104 107 108 104 107 129 133 130 121 121 119 115 102 87 78
273 266 155 134 189 185 136 130 96 93 126 116 41 135 138 142 134 129 134 132 131 127 135 124 131 124 149 143 158 155 141 133 120 104 101 96 90 100 97 150 134 127 120 119 118 113 97 85 61
269 329 112 55 94 141 134 135 138 147 143 117 104 118 141 146 146 137 140 141 150 137 137 134 128 129 137 142 148 152 142 126 115 114 97 101 125 133 131 130 126 119 111 105 108 102 84 50 267
294 33 87 104 24 68 134 191 163 184 113 170 135 147 152 154 159 151 144 145 143 157 146 139 149 136 134 128 140 145 135 129 129 122 101 130 141 130 116 106 97 103 79 103 76 38 38 74 111
235 98 89 89 96 121 132 220 157 96 48 66 131 157 160 163 170 166 163 159 148 155 160 140 133 137 127 116 136 136 132 132 125 128 122 156 147 143 152 143 135 157 117 162 188 150 111 95 29
229 123 178 155 155 103 153 164 100 154 160 120 141 157 164 172 169 169 168 164 164 164 160 157 157 157 151 144 143 129 142 145 167 145 152 172 152 147 147 163 156 101 155 129 125 102 94 61 90
282 113 135 152 204 202 178 194 188 171 186 136 152 164 169 176 173 167 179 172 171 170 165 159 167 164 157 162 178 172 163 177 175 169 174 178 163 160 163 167 142 138 163 152 136 193 116 271 170
203 175 169 168 146 173 208 186 194 137 171 154 165 174 170 173 169 173 175 178 178 174 169 168 166 165 163 167 170 159 167 171 172 173 172 175 152 174 156 151 130 134 254 150 116 231 222 234 193
232 164 327 138 155 147 236 239 120 161 193 171 170 176 171 170 170 170 172 178 177 176 172 171 174 171 172 173 169 180 159 177 177 178 181 178 175 174 132 188 145 159 172 156 120 29 32 192 177
200 327 159 172 167 142 212 184 143 169 192 191 176 172 177 178 177 174 172 176 177 177 175 175 175 175 173 175 166 176 174 179 180 176 182 183 188 185 165 178 194 179 188 174 234 128 281 136 180
320 163 227 125 221 192 210 256 150 190 182 221 188 177 179 179 182 176 180 177 177 180 177 175 177 176 174 174 175 177 184 186 183 182 189 190 190 194 172 215 71 186 190 220 331 70 65 7 284
267 191 74 332 116 222 235 252 175 170 190 195 212 180 189 193 183 179 187 179 180 183 182 178 178 180 179 183 180 185 189 184 185 184 186 191 193 201 195 202 230 212 238 244 187 257 248 280 306
247 244 173 180 192 238 256 237 199 168 193 185 217 184 204 205 180 184 187 188 188 187 189 187 185 188 184 188 186 189 187 189 188 192 193 186 200 203 206 206 219 229 236 244 242 232 273 251 262
235 251 185 182 192 240 255 246 277 173 187 205 190 201 199 205 180 191 190 195 192 191 193 194 191 194 189 192 189 191 189 190 199 197 201 201 204 212 215 223 216 232 220 243 234 248 240 272 294
242 215 264 211 249 280 222 276 190 201 171 189 203 205 203 204 185 193 193 198 198 198 198 195 193 196 198 192 200 200 191 197 204 210 210 214 209 220 224 231 237 233 228 237 250 246 216 255 269
249 258 228 205 249 274 259 258 140 204 177 186 203 202 202 215 193 195 195 194 202 197 199 196 196 198 198 207 190 213 202 211 210 219 213 202 223 211 221 224 226 230 231 246 230 219 235 233 256
246 250 256 247 241 243 229 208 139 212 189 178 187 203 208 198 206 215 199 197 195 195 196 195 200 207 199 209 207 205 219 208 216 216 219 216 219 226 216 218 221 226 225 244 252 232 236 216 228
223 225 225 223 222 236 81 98 236 145 158 187 190 188 200 208 196 201 199 200 194 193 193 194 200 202 206 208 211 210 210 217 221 232 227 220 224 222 231 221 221 228 236 225 232 245 210 244 239
218 220 228 214 225 239 163 208 156 169 126 165 232 226 193 196 198 198 197 197 196 196 195 193 197 202 204 204 212 215 214 214 220 225 226 231 234 220 239 204 220 233 231 232 234 223 235 251 250
198 229 242 258 241 217 231 307 153 165 184 194 178 193 183 189 196 189 195 192 197 198 196 196 198 202 205 208 212 215 221 212 217 221 233 224 228 226 251 219 228 228 232 231 241 245 244 250 250
251 232 232 247 258 244 173 203 4 158 200 178 146 172 152 171 182 180 191 191 194 194 196 199 201 205 205 205 211 215 218 223 215 216 220 217 227 227 237 224 231 234 230 231 232 237 243 245 245
210 244 234 255 249 267 261 264 166 172 193 171 158 137 138 149 168 175 184 192 190 193 198 202 205 202 207 210 213 214 220 222 222 222 224 224 221 221 228 235 230 230 229 234 238 231 232 252 234
228 217 238 240 228 278 306 307 5 159 165 182 143 141 131 139 155 173 177 184 189 192 196 201 207 211 213 214 212 217 217 220 225 227 228 233 229 230 225 230 232 225 225 232 241 245 241 249 248
Height
1508 1509 1512 1512 1513 1499 1490 1488 1486 1485 1486 1493 1496 1498 1504 1508 1509 1526 1527 1529 1528 1533 1534 1535 1538 1539 1542 1543 1545 1546 1547 1549 1551 1552 1553 1551 1554 1554 1554 1555 1556 1557 1557 1558 1558 1559 1559 1560 1560
1513 1513 1511 1504 1516 1501 1495 1482 1492 1496 1499 1500 1500 1503 1507 1516 1518 1524 1528 1529 1529 1533 1536 1536 1540 1542 1544 1546 1546 1547 1549 1551 1553 1554 1553 1555 1556 1556 1556 1557 1558 1559 1559 1560 1561 1561 1561 1561 1562
1511 1511 1505 1492 1515 1502 1496 1489 1497 1500 1502 1501 1503 1509 1510 1519 1521 1526 1529 1529 1531 1534 1535 1537 1541 1544 1545 1547 1548 1549 1550 1552 1553 1554 1555 1556 1557 1558 1558 1559 1560 1561 1562 1562 1563 1563 1564 1564 1565
1512 1509 1504 1512 1513 1483 1487 1493 1499 1498 1503 1505 1504 1511 1520 1522 1524 1527 1530 1532 1534 1533 1536 1537 1541 1545 1547 1548 1550 1550 1553 1554 1555 1555 1557 1557 1558 1559 1560 1561 1562 1562 1564 1564 1566 1566 1566 1567 1567
1511 1502 1501 1504 1505 1488 1489 1496 1499 1500 1504 1506 1506 1515 1522 1525 1527 1529 1530 1534 1535 1537 1537 1538 1542 1545 1548 1549 1551 1552 1555 1556 1557 1558 1558 1559 1560 1561 1562 1562 1564 1565 1566 1566 1568 1568 1569 1569 1569
1505 1500 1508 1520 1514 1490 1493 1499 1498 1504 1506 1509 1513 1519 1527 1529 1530 1533 1534 1536 1536 1537 1539 1538 1542 1546 1548 1550 1553 1555 1557 1559 1559 1559 1560 1560 1562 1562 1564 1564 1566 1567 1567 1568 1570 1570 1571 1571 1571
1502 1500 1513 1507 1522 1497 1496 1499 1500 1504 1506 1510 1514 1519 1528 1530 1532 1535 1536 1537 1540 1541 1543 1541 1542 1545 1548 1551 1555 1556 1557 1559 1561 1561 1562 1562 1563 1565 1566 1566 1567 1569 1569 1571 1572 1572 1573 1573 1573
1503 1498 1501 1507 1521 1518 1501 1499 1505 1503 1509 1513 1514 1518 1526 1533 1534 1536 1539 1540 1542 1543 1545 1546 1547 1550 1551 1554 1556 1557 1559 1560 1562 1562 1564 1566 1567 1568 1569 1570 1570 1571 1571 1573 1573 1574 1574 1574 1575
1502 1505 1505 1507 1513 1497 1500 1499 1506 1509 1511 1513 1515 1517 1525 1533 1536 1537 1540 1543 1545 1544 1544 1549 1551 1552 1552 1555 1557 1560 1561 1562 1563 1563 1566 1568 1571 1572 1573 1572 1572 1573 1574 1575 1575 1576 1576 1576 1576
1497 1489 1494 1493 1491 1495 1500 1500 1505 1507 1510 1514 1517 1521 1528 1533 1536 1537 1540 1543 1545 1547 1550 1550 1551 1553 1555 1557 1558 1561 1563 1563 1563 1565 1568 1570 1576 1576 1575 1574 1574 1575 1576 1577 1577 1577 1577 1577 1576
1494 1495 1496 1497 1496 1495 1499 1502 1504 1509 1513 1510 1514 1523 1529 1532 1535 1537 1539 1541 1544 1546 1549 1552 1552 1555 1557 1558 1559 1561 1563 1564 1564 1568 1570 1574 1576 1577 1578 1577 1577 1578 1578 1578 1579 1578 1577 1581 1580
1496 1497 1498 1500 1503 1503 1506 1503 1504 1509 1510 1510 1514 1522 1528 1531 1533 1535 1538 1541 1544 1548 1550 1552 1554 1557 1557 1559 1562 1564 1564 1566 1568 1569 1573 1575 1577 1578 1579 1580 1580 1579 1580 1581 1579 1581 1581 1582 1582
1490 1494 1499 1501 1502 1505 1508 1505 1509 1510 1513 1512 1516 1522 1527 1529 1532 1535 1537 1540 1544 1548 1551 1553 1556 1559 1559 1562 1565 1568 1568 1569 1569 1573 1574 1575 1578 1579 1581 1581 1578 1578 1581 1581 1581 1581 1582 1582 1582
1493 1494 1497 1500 1501 1502 1503 1507 1509 1508 1512 1514 1518 1522 1525 1527 1531 1535 1539 1540 1544 1547 1551 1553 1556 1558 1562 1563 1565 1567 1570 1570 1573 1573 1576 1575 1579 1579 1582 1581 1581 1581 1580 1581 1582 1581 1581 1582 1583
1492 1493 1493 1495 1499 1498 1500 1500 1502 1505 1510 1514 1517 1519 1522 1526 1530 1534 1537 1540 1544 1547 1551 1554 1556 1560 1562 1564 1565 1566 1569 1572 1574 1575 1575 1577 1578 1579 1581 1581 1579 1581 1580 1581 1581 1581 1581 1581 1582
1489 1488 1504 1487 1495 1498 1498 1518 1501 1508 1510 1511 1513 1517 1521 1525 1529 1533 1536 1540 1544 1547 1550 1554 1556 1559 1562 1564 1566 1566 1568 1571 1573 1574 1576 1578 1578 1581 1581 1580 1578 1581 1582 1582 1582 1582 1581 1582 1582
1481 1511 1506 1490 1489 1493 1497 1500 1500 1507 1509 1508 1511 1515 1520 1523 1527 1531 1535 1538 1542 1546 1550 1553 1555 1558 1561 1562 1565 1568 1569 1571 1572 1574 1576 1578 1580 1580 1580 1581 1580 1581 1583 1581 1579 1582 1580 1580 1581
1486 1493 1498 1505 1492 1491 1491 1491 1494 1503 1506 1508 1509 1512 1517 1520 1524 1529 1532 1537 1540 1545 1548 1551 1555 1557 1560 1562 1565 1568 1569 1571 1572 1574 1576 1576 1579 1579 1579 1581 1580 1581 1583 1583 1579 1580 1582 1580 1580
1478 1488 1496 1492 1486 1490 1488 1486 1486 1495 1504 1507 1507 1508 1513 1517 1521 1525 1530 1534 1539 1543 1546 1549 1553 1555 1559 1561 1564 1566 1567 1570 1571 1573 1572 1575 1577 1578 1578 1580 1581 1582 1582 1581 1583 1583 1583 1580 1581
1479 1480 1490 1490 1486 1488 1482 1482 1477 1485 1492 1498 1503 1506 1509 1512 1517 1521 1527 1531 1536 1540 1543 1546 1550 1552 1556 1560 1562 1564 1566 1568 1569 1571 1570 1574 1576 1577 1578 1579 1581 1582 1582 1582 1583 1582 1581 1581 1581
1480 1477 1476 1481 1484 1481 1480 1481 1479 1476 1485 1491 1495 1501 1504 1508 1512 1517 1522 1528 1532 1537 1541 1543 1547 1549 1552 1557 1559 1561 1563 1565 1567 1567 1570 1572 1574 1575 1576 1578 1579 1580 1581 1582 1581 1582 1581 1580 1580
1483 1472 1472 1486 1489 1490 1480 1490 1494 1469 1476 1485 1490 1494 1498 1502 1506 1513 1517 1523 1527 1532 1537 1540 1543 1546 1549 1553 1557 1559 1561 1563 1564 1566 1568 1569 1571 1574 1575 1577 1578 1578 1580 1580 1581 1580 1580 1580 1580
1475 1466 1469 1474 1483 1482 1473 1480 1467 1462 1471 1476 1483 1485 1491 1495 1499 1505 1510 1516 1522 1528 1533 1537 1539 1542 1547 1549 1553 1557 1558 1561 1562 1564 1565 1568 1568 1571 1573 1575 1576 1577 1578 1578 1578 1579 1578 1580 1580
1471 1472 1474 1474 1474 1487 1467 1480 1469 1471 1463 1465 1470 1479 1482 1489 1494 1501 1506 1512 1518 1523 1529 1533 1535 1538 1542 1545 1549 1553 1556 1557 1560 1561 1562 1565 1567 1568 1570 1572 1573 1575 1576 1576 1576 1576 1576 1577 1578
1471 1475 1491 1493 1483 1482 1460 1478 1462 1459 1461 1462 1465 1470 1476 1481 1487 1496 1501 1508 1512 1519 1525 1529 1532 1534 1538 1541 1544 1548 1551 1554 1556 1558 1560 1561 1564 1566 1566 1568 1570 1572 1572 1574 1574 1574 1575 1575 1576
1468 1466 1475 1493 1478 1463 1454 1470 1458 1451 1458 1462 1466 1467 1470 1477 1481 1490 1496 1504 1510 1515 1520 1525 1528 1531 1535 1539 1541 1544 1547 1551 1553 1556 1559 1561 1561 1562 1564 1563 1567 1569 1570 1571 1571 1571 1573 1573 1574
1459 1469 1449 1455 1469 1474 1489 1459 1446 1451 1458 1460 1461 1467 1469 1472 1478 1485 1493 1501 1508 1512 1517 1521 1525 1528 1531 1535 1539 1541 1543 1546 1550 1553 1554 1557 1558 1560 1560 1562 1564 1566 1567 1568 1569 1569 1571 1571 1571
1451 1447 1467 1454 1480 1495 1478 1467 1457 1454 1456 1455 1460 1464 1468 1472 1476 1483 1490 1496 1504 1509 1513 1518 1522 1525 1528 1533 1535 1538 1541 1542 1545 1548 1550 1553 1555 1556 1557 1559 1561 1563 1564 1565 1566 1567 1568 1568 1569
1456 1457 1451 1442 1447 1465 1470 1454 1427 1445 1450 1454 1458 1460 1468 1474 1478 1483 1489 1494 1500 1506 1510 1515 1518 1522 1525 1528 1532 1535 1538 1540 1541 1544 1545 1546 1548 1551 1554 1555 1558 1559 1560 1562 1562 1563 1564 1564 1565
1438 1446 1441 1456 1465 1450 1454 1454 1431 1435 1444 1453 1457 1468 1472 1475 1480 1484 1489 1493 1498 1503 1507 1511 1516 1519 1522 1525 1527 1530 1533 1536 1538 1539 1541 1542 1543 1545 1546 1549 1551 1553 1555 1557 1557 1558 1561 1562 1562